Location: Unspecified
(52.0000°N, 4.4000°E)
Time: 21:49:15
(UTC+00:00)

Cosmos 1743 Rocket - Pass Details

Date: 14 May 2025
Orbit: 599 x 626 km, 82.6° (Epoch: 15 June)

Event Time Altitude Azimuth Distance (km) Brightness Sun altitude
Rises 23:40:41 0° 350° (N) 2,927 8.6 -19.1°
Reaches altitude 10° 23:42:57 10° 353° (N) 2,015 7.4 -19.1°
Maximum altitude 23:47:25 73° 77° (ENE) 660 3.6 -19.1°
Enters shadow 23:48:57 40° 153° (SSE) 929 4.0 -19.1°
